Regional Weather Roundup
Issued by NWS

Home | Current Version | Previous Version | Text Only | Print | Product List | Glossary Off
Versions: 1 2 3 4 5 6 7 8 9 10 11 12 13 14 15 16 17 18 19 20 21 22 23 24 25 26 27 28 29 30 31 32 33 34 35 36 37 38 39 40 41 42 43 44 45 46 47 48 49 50

000
ASUS43 KLSX 181007
RWRMO

WEATHER SUMMARY FOR MISSOURI
NATIONAL WEATHER SERVICE SPRINGFIELD MO
400 AM CST WED JAN 18 2017

NOTE: "FAIR" INDICATES FEW OR NO CLOUDS BELOW 12,000 FEET WITH NO
       SIGNIFICANT WEATHER AND/OR OBSTRUCTIONS TO VISIBILITY.
       CURRENT SKY AND/OR WEATHER CONDITIONS ARE NOT AVAILABLE FOR
       CHILLICOTHE AND FARMINGTON.

MOZ001>031-035>038-043-044-053-054-181100-
...NORTHERN AND WESTERN MISSOURI...

CITY           SKY/WX    TMP DP  RH WIND       PRES   REMARKS
KANSAS CTY INT PTCLDY    29  27  92 SW5       30.13F FOG     WCI  24
KANSAS C DTWN  FOG       28  26  92 CALM      30.14F VSB 1/4
LEE`S SUMMIT   FOG       31  31 100 S5        30.15S VSB 1/4 WCI  26
ST JOSEPH      FOG       29  29 100 S6        30.15F VSB 1/4 WCI  23
CHILLICOTHE      N/A     34  33  96 CALM      30.15F
KIRKSVILLE     MOCLDY    32  31  96 SW3       30.15F

$$
MOZ066>068-077>081-088>096-101>105-181100-
...SOUTHWEST MISSOURI...

CITY           SKY/WX    TMP DP  RH WIND       PRES   REMARKS
SPRINGFIELD    FOG       36  34  92 E3        30.16F VSB 1/2
JOPLIN         FOG       36  36 100 E6        30.16F VSB 1/4
BRANSON        CLOUDY    37  37 100 CALM      30.17F FOG

$$
MOZ032>034-039>042-045>050-055>058-069>072-181100-
...CENTRAL MISSOURI...

CITY           SKY/WX    TMP DP  RH WIND       PRES   REMARKS
COLUMBIA       CLOUDY    36  32  85 NW5       30.17F
JEFFERSON CITY CLOUDY    37  31  78 NW5       30.19S
ROLLA          CLOUDY    36  33  89 VRB6      30.16S
SEDALIA        CLOUDY    37  36  96 SW5       30.18S
WHITEMAN AFB   CLOUDY    36  36 100 SW7       30.16R
WARRENSBURG    CLOUDY    36  34  93 S9        30.17S FOG     WCI  29
OSAGE BEACH    CLOUDY    37  33  85 N3        30.19R

$$
MOZ051-052-059>065-181100-
...EAST CENTRAL MISSOURI...

CITY           SKY/WX    TMP DP  RH WIND       PRES   REMARKS
ST LOUIS INTL  CLOUDY    40  33  76 NW10      30.18F
SPIRIT OF STL  CLOUDY    39  34  82 W7        30.19S
ST CHARLES     CLOUDY    38  33  82 NW9       30.19F

$$
MOZ072>076-082>087-097>100-106>115-181100-
...SOUTH CENTRAL AND SOUTHEAST MISSOURI...

CITY           SKY/WX    TMP DP  RH WIND       PRES   REMARKS
CAPE GIRARDEAU CLOUDY    41  36  82 N7        30.20R
FARMINGTON     CLOUDY    37  34  89 NW3       30.19R
POPLAR BLUFF   CLOUDY    42  38  85 N5        30.19F
WEST PLAINS    FOG       36  36 100 W5        30.19R VSB 1

$$


USA.gov is the U.S. government's official web portal to all federal, state and local government web resources and services.